Home > Weather > Guatemala > Past weeks

Flag for Guatemala Weather for the Past 2 Weeks in Guatemala, Guatemala

Now
55 °F

Clear.


Feels Like: 52 °F
Forecast: 54 / 69 °F
Wind: 12 mph from North

Location: Guatemala Aeropuertola Aurora

Current Time: Feb 6, 2016 at 3:44:56 AM

Latest Report: Feb 6, 2016 at 3:00 AM


Visibility: 10 mi

Pressure: 30.27 "Hg (25.21 "Hg at 1533m altitude)

Humidity: 82%

Dew point: 50 °F

Location of GuatemalaLocation

Historic Weather in Guatemala — Graph

°F

Guatemala Temperature Yesterday

Maximum temperature yesterday: 72 °F (at 12:00 PM)
Minimum temperature yesterday: 55 °F (at 11:00 PM)
Average temperature yesterday: 63 °F

High & Low Weather Summary for the Past Weeks

 TemperatureHumidityPressure
High81 °F (Feb 1, 1:00 PM)100% (Jan 24, 2:00 AM)30.39 "Hg (Jan 24, 2:00 AM)
Low48 °F (Jan 24, 2:00 AM)39% (Feb 1, 2:00 PM)30.15 "Hg (Jan 27, 3:00 PM)
Average64 °F77%30.28 "Hg
* Reported Jan 22 2:00 AM — Feb 6 2:00 AM, Guatemala, Weather by CustomWeather, © 2016

Note: Actual official high and low records may vary slightly from our data, if they occured in-between our weather recording intervals... More about our weather records

Advertising

Guatemala Weather History for the Previous 24 Hours

 ConditionsComfort  
Time TempWeatherWind HumidityBarometerVisibility
2:00 AM
Sat, Feb 6
55 °FClear.9 mph82%30.27 "Hg10 mi
1:00 AM55 °FClear.12 mph82%30.30 "Hg10 mi
12:00 AM55 °FClear.14 mph82%30.33 "Hg10 mi
11:00 PM
Fri, Feb 5
55 °FClear.14 mph88%30.33 "Hg10 mi
10:00 PM57 °FClear.16 mph82%30.33 "Hg10 mi
9:00 PM59 °FClear.18 mph72%30.33 "Hg10 mi
8:00 PM59 °FPassing clouds.21 mph77%30.33 "HgN/A
7:00 PM61 °FPassing clouds.21 mph72%30.30 "HgN/A
6:00 PM64 °FScattered clouds.18 mph64%30.27 "HgN/A
5:00 PM68 °FPassing clouds.21 mph56%30.27 "HgN/A
4:00 PM70 °FPassing clouds.12 mph53%30.27 "HgN/A
3:00 PM72 °FPassing clouds.18 mph50%30.27 "HgN/A
2:00 PM72 °FScattered clouds.21 mph50%30.27 "HgN/A
1:00 PM72 °FPassing clouds.18 mph50%30.30 "HgN/A
12:00 PM72 °FPassing clouds.21 mph47%30.33 "HgN/A
11:00 AM70 °FPassing clouds.23 mph53%30.36 "HgN/A
10:00 AM68 °FPassing clouds.23 mph56%30.39 "HgN/A
9:00 AM64 °FPassing clouds.23 mph64%30.39 "HgN/A
8:00 AM61 °FPassing clouds.21 mph72%30.36 "HgN/A
7:00 AM59 °FPassing clouds.16 mph72%30.36 "HgN/A
6:00 AM59 °FPassing clouds.16 mph77%30.33 "HgN/A
5:00 AM59 °FPassing clouds.16 mph72%30.33 "HgN/A
4:00 AM59 °FPassing clouds.21 mph77%30.30 "HgN/A
3:00 AM61 °FPassing clouds.18 mph72%30.33 "HgN/A
Weather by CustomWeather, © 2016

See weather overviewHow to use our weather pages